OBJECT B, 59774

Orbit data source: Space-Track

You're viewing an Uncataloged Satellite

Recently launched and/or uncataloged satellites may have evolving metadata. Metadata may include but not limited to: Owner, Maufacturer, Bus, Motor, and Mission.

OBJECT B, 59774 is a satellite owned by Sputniks (CIS) in SSO that was launched on Thu, 16 May 2024 UTC via a SOYUZ-2-1B launch vehicle from the Plesetsk Missile And Space Complex (PKMTR). Unknown objects in Earth's orbit typically refer to objects detected orbiting the Earth but have not yet been identified or cataloged. These objects could be anything from previously untracked satellites, spent rocket stages, debris from satellite collisions, or even natural meteoroids temporarily captured by Earth's gravity.

Loading next visibility...
Identifier
59774, 2024-092B
Orbit
SSO
Last TLE update
6 hours ago
Origin
Manufacturer
Sputniks
Mission
Operational spacecraft
Bus & Motor
CUBESAT 12U, Unknown motor
Mass
20 kg wet, 20 kg dry
Launch date (UTC)
2024-05-16 (1 year ago)
Launch vehicle
SOYUZ-2-1B
Launch site
Plesetsk Missile And Space Complex (PKMTR)
Object type
Unknown
Shape & HBR
Unknown
Radar Cross Section
Medium (>0.1 m² and <1 m²)

Expand to show TLE details & history

TLE from 6 hours ago
0 OBJECT B
1 59774U 24092B   25182.19205202  .00006218  00000-0  28987-3 0  9992
2 59774  97.6163 299.9162 0009737 335.9026  24.1752 15.20209938 62062
Epoch: 2025-07-01T04:36Z
TLE epoch observation values (Epoch: 2025-07-01T04:36:33.294Z)
Latitude
-0.00001°
Longitude
-48.71356°
Altitude
502.177 km
Speed
7.617 km/s
True Right ascension
19h 59m 39s
True Declination
0° 00' 00"
Sunlit
Object was in full shadow at epoch
Visualization orbit readout
Latitude
-7.89252°
Longitude
130.46416°
Altitude
515.284 km
Speed
7.602 km/s
Apparent Right ascension
08h 43m 07s
Apparent Declination
-23° 45' 24"
Sunlit
Object is in daylight
Visualization observer readout
Local Sidereal Time
21:48:45
Azimuth
45.456° ENE
Elevation
-68.735°
Doppler factor
1
Orbital elements
Apogee altitude
508.881 km
Perigee altitude
495.482 km
Semi-major axis
6,880.318 km
Eccentricity
0.00097
Inclination
97.6163°
RAAN
299.9162°
Arg. of periapsis
335.9026°
True anomaly
Unknown
Mean anomaly
24.1752°
Eccentric anomaly
Unknown
Mean motion
3.80304 °/min
Orbital period
94.66 mins
BSTAR
0.00028987
Loading maneuver chart data...
Loading SW <> Apogee altitude chart data...
Loading historical data...
Loading historical data...
Loading historical data...
Loading historical data...
Loading historical data...
Loading historical data...
Loading historical data...

OBJECT B Visibility forecast

Observer location: undefined°, undefined°

Span
Click to sort rows by Start time (UTC) header in descending order
Start Az.
Max El. time (UTC)
Max El. Az.
Max El.
End time (UTC)
End Az.
7 mins2025-07-01 20:57:20.713Z4.362° NNE2025-07-01 21:01:20.713Z255.105° W39.606°2025-07-01 21:04:20.713Z205.997° SW
5 mins2025-07-02 07:36:20.713Z143.48° SSE2025-07-02 07:38:20.713Z94.733° ESE36.839°2025-07-02 07:41:20.713Z2.841° NNE
|